Location: Chiroubles
(46.1812°N, 4.6660°E)
Time: 22:44:19
(UTC+00:00)

Courier 1B Rocket - Visible Passes

Search period start: 05 December 2020 00:00
Search period end: 15 December 2020 00:00
Orbit: 920 x 1202 km, 28.3° (Epoch: 05 December)

Date Brightness Start Highest point End Pass type
(mag) Time Alt. Az. Time Alt. Az. Time Alt. Az.
05 Dec 7.2 03:32:01 18° S 03:32:03 18° S 03:36:53 10° SE visible
05 Dec 7.2 05:19:19 10° SW 05:24:32 19° S 05:29:44 10° SE visible
06 Dec 7.7 02:34:51 11° SE 02:34:51 11° SE 02:35:19 10° SE visible
06 Dec 7.0 04:21:13 17° SSW 04:23:38 20° S 04:28:56 10° SE visible
06 Dec 7.4 06:11:48 10° SW 06:16:05 16° SSW 06:20:22 10° SSE visible
07 Dec 7.2 03:24:01 18° SSE 03:24:01 18° SSE 03:27:53 10° SE visible
07 Dec 7.2 05:10:24 10° SW 05:15:14 18° S 05:20:07 10° SSE visible
08 Dec 7.0 04:13:10 18° SSW 04:14:22 19° S 04:19:30 10° SE visible
08 Dec 7.4 06:03:40 10° SW 06:06:45 13° SSW 06:09:51 10° S visible
09 Dec 7.3 03:15:57 17° SSE 03:15:57 17° SSE 03:18:38 10° SE visible
09 Dec 7.2 05:02:19 11° SW 05:05:56 15° SSW 05:10:07 10° SSE visible
10 Dec 7.1 04:05:05 17° S 04:05:07 17° S 04:09:49 10° SSE visible
11 Dec 7.5 03:07:51 13° SSE 03:07:51 13° SSE 03:09:09 10° SE visible
11 Dec 7.3 04:54:13 10° SW 04:56:38 12° SSW 04:59:26 10° S visible
12 Dec 7.3 03:57:01 14° S 03:57:01 14° S 03:59:43 10° SSE visible
